Home > Weather > Lund > Past weeks

Flag for Sweden Weather for the Past 2 Weeks in Lund, Sweden

Now
37 °F

Passing clouds.


Feels Like: 31 °F
Forecast: 32 / 39 °F
Wind: 8 mph from Southwest

Location: Malmo / Sturup

Current Time: Feb 10, 2016 at 8:14:13 PM

Latest Report: Feb 10, 2016 at 7:20 PM


Visibility: N/A

Pressure: 29.24 "Hg

Humidity: 93%

Dew point: 36 °F

Location of LundLocation

Historic Weather in Lund — Graph

°F

Lund Temperature Yesterday

Maximum temperature yesterday: 43 °F (at 12:50 PM)
Minimum temperature yesterday: 37 °F (at 5:50 PM)
Average temperature yesterday: 41 °F

High & Low Weather Summary for the Past Weeks

 TemperatureHumidityPressure
High46 °F (Jan 27, 2:20 PM)100% (Jan 27, 2:20 AM)30.09 "Hg (Jan 27, 2:20 AM)
Low30 °F (Feb 5, 3:20 AM)61% (Jan 28, 1:20 PM)28.77 "Hg (Feb 10, 3:20 AM)
Average40 °F88%29.55 "Hg
* Reported Jan 26 6:20 PM — Feb 10 6:50 PM, Lund, Weather by CustomWeather, © 2016

Note: Actual official high and low records may vary slightly from our data, if they occured in-between our weather recording intervals... More about our weather records

Advertising

Lund Weather History for the Previous 24 Hours

 ConditionsComfort  
Time TempWeatherWind HumidityBarometerVisibility
6:50 PM
Wed, Feb 10
37 °FPassing clouds.10 mph93%29.24 "HgN/A
6:20 PM37 °FOvercast.10 mph93%29.21 "HgN/A
5:50 PM37 °FMostly cloudy.12 mph93%29.21 "Hg4 mi
5:20 PM37 °FLow clouds.13 mph93%29.21 "Hg4 mi
4:50 PM37 °FFog.14 mph93%29.21 "Hg4 mi
4:20 PM37 °FLight rain. Low clouds.14 mph93%29.18 "Hg5 mi
3:50 PM37 °FDrizzle. Low clouds.15 mph93%29.18 "Hg5 mi
3:20 PM39 °FLight rain. Low clouds.15 mph93%29.18 "Hg6 mi
2:50 PM37 °FLight rain. Low clouds.15 mph93%29.15 "Hg3 mi
2:20 PM39 °FSprinkles. Partly sunny.16 mph93%29.15 "Hg5 mi
1:50 PM39 °FSprinkles. Partly sunny.16 mph93%29.15 "HgN/A
1:20 PM39 °FMostly cloudy.17 mph93%29.12 "HgN/A
12:50 PM39 °FMostly cloudy.16 mph93%29.12 "HgN/A
12:20 PM39 °FMostly cloudy.18 mph93%29.12 "HgN/A
11:50 AM39 °FMostly cloudy.17 mph93%29.09 "HgN/A
11:20 AM39 °FDrizzle. Low clouds.17 mph93%29.09 "HgN/A
10:50 AM37 °FLow clouds.18 mph93%29.06 "HgN/A
10:20 AM39 °FLow clouds.20 mph93%29.06 "HgN/A
9:50 AM37 °FMostly cloudy.17 mph93%29.03 "HgN/A
9:20 AM37 °FLow clouds.23 mph93%29.00 "HgN/A
8:50 AM37 °FMostly cloudy.21 mph93%28.97 "HgN/A
8:20 AM36 °FLight rain. Fog.20 mph93%28.94 "Hg4 mi
7:50 AM36 °FFog.23 mph93%28.91 "Hg2 mi
7:20 AM36 °FLow clouds.21 mph93%28.88 "HgN/A
6:50 AM36 °FFog.18 mph93%28.82 "Hg2 mi
6:20 AM36 °FLow clouds.21 mph100%28.82 "HgN/A
5:50 AM41 °FDrizzle. Overcast.10 mph93%28.80 "Hg6 mi
5:20 AM41 °FLight rain. Mostly cloudy.14 mph93%28.77 "HgN/A
4:50 AM41 °FRain. Fog.14 mph93%28.77 "Hg4 mi
4:20 AM43 °FLight rain. Mostly cloudy.14 mph93%28.77 "HgN/A
3:50 AM43 °FMostly cloudy.14 mph93%28.77 "HgN/A
3:20 AM41 °FPassing clouds.14 mph93%28.77 "HgN/A
2:20 AM41 °FPassing clouds.14 mph100%28.80 "HgN/A
1:50 AM41 °FRain. Low clouds.13 mph100%28.80 "Hg6 mi
1:20 AM41 °FLight rain. Passing clouds.16 mph93%28.82 "Hg6 mi
12:50 AM39 °FLight rain. Passing clouds.16 mph100%28.82 "Hg3 mi
12:20 AM39 °FRain. Passing clouds.17 mph93%28.88 "Hg3 mi
11:50 PM
Tue, Feb 9
39 °FRain. Passing clouds.14 mph100%28.91 "Hg3 mi
11:20 PM39 °FLight rain. Partly cloudy.12 mph93%28.91 "Hg3 mi
10:20 PM41 °FPartly cloudy.9 mph81%28.97 "HgN/A
9:50 PM41 °FPassing clouds.9 mph81%29.00 "HgN/A
9:20 PM41 °FClear.8 mph81%29.00 "Hg10 mi
8:50 PM41 °FPassing clouds.8 mph81%29.03 "HgN/A
8:20 PM41 °FPassing clouds.9 mph81%29.06 "HgN/A
Weather by CustomWeather, © 2016

See weather overviewHow to use our weather pages